Regional Weather Roundup
Issued by NWS Upton, NY

Current Version | Previous Version | Text Only | Print | Product List | Glossary On
Versions: 1 2 3 4 5 6 7 8 9 10 11 12 13 14 15 16 17 18 19 20 21 22 23 24 25 26 27 28 29 30 31 32 33 34 35 36 37 38 39 40 41 42 43 44 45 46 47 48 49 50
000
ASUS41 KOKX 271005
RWROKX

REGIONAL WEATHER ROUNDUP
NATIONAL WEATHER SERVICE NEW YORK NY
600 AM EDT WED AUG 27 2014

NOTE: "FAIR" INDICATES FEW OR NO CLOUDS BELOW 12,000 FEET WITH NO
SIGNIFICANT WEATHER AND/OR OBSTRUCTIONS TO VISIBILITY.

NYZ071-072-176-178-NJZ106-104-271100-
NEW YORK CITY METRO AREA


CITY           SKY/WX    TMP DP  RH WIND       PRES   REMARKS
CENTRAL PARK   CLEAR     70  62  76 W6        30.06R
LAGUARDIA APRT PTCLDY    73  63  70 CALM      30.02S
KENNEDY INTL   PTCLDY    68  62  81 SW6       30.04S
NEWARK/LIBERTY CLEAR     68  63  84 CALM      30.03S
BRNX BOT. GARD   N/A     70  63  78 NW3       30.06R
TETERBORO      CLEAR     66  60  81 CALM      30.02S
$$

NYZ177-179-078>081-271100-
LONG ISLAND NEW YORK

CITY           SKY/WX    TMP DP  RH WIND       PRES   REMARKS
FARMINGDALE    CLEAR     66  61  84 CALM      30.03F
ISLIP          PTCLDY    64  60  87 CALM      30.02S
SHIRLEY        CLEAR     61  59  93 CALM      30.04S
WESTHAMPTON    CLEAR     55  52  89 CALM      30.05S
MONTAUK POINT    N/A     66  63  90 CALM      30.05R
$$

NYZ052-065-067-271100-
HUDSON VALLEY

CITY           SKY/WX    TMP DP  RH WIND       PRES   REMARKS
WHITE PLAINS   CLEAR     66  61  84 W5        30.03S
NEWBURGH       CLEAR     64  64 100 CALM      30.05R
MONTGOMERY     CLEAR     62  60  93 SW6       30.03S
POUGHKEEPSIE   CLEAR     64  61  90 S3        30.01S
ALBANY         MOCLDY    68  62  81 S6        30.01R
$$

NJZ001-105-106-008-010-013-015-019>022-104-271100-
NEW JERSEY

CITY           SKY/WX    TMP DP  RH WIND       PRES   REMARKS
NEWARK/LIBERTY CLEAR     68  63  84 CALM      30.03S
TETERBORO      CLEAR     66  60  81 CALM      30.02S
CALDWELL       CLEAR     63  60  90 CALM      30.04S
MORRISTOWN     CLEAR     61  57  88 CALM      30.04R FOG
SOMERVILLE     CLEAR     60  58  92 CALM      30.03R
LINDEN         FAIR      70  65  83 CALM      30.05S
SUSSEX         CLEAR     60  58  92 CALM      30.05S FOG
ANDOVER          N/A     60  60 100 CALM      30.06R
TRENTON        CLEAR     64  61  90 CALM      30.04S
MILLVILLE      MOCLDY    56  55  97 CALM      30.06S
ATLANTIC CITY  CLEAR     62  60  93 S5        30.06R
WRIGHTSTOWN    CLEAR     61  60  99 CALM      30.03R
TOMS RIVER     CLEAR     57  54  88 CALM      30.05S
BELMAR         CLEAR     63  57  82 W3        30.04S
$$

PAZ047>061-062-071-271100-
EASTERN PENNSYLVANIA

CITY           SKY/WX    TMP DP  RH WIND       PRES   REMARKS
PHILADELPHIA   CLEAR     67  63  87 S5        30.06R
ALLENTOWN      CLEAR     62  59  90 CALM      30.06R FOG
SCRANTON       CLEAR     61  57  87 CALM      30.07R
$$

CTZ002-004>006-009-010-012-RIZ004-006-007-MAZ004-011-015-271100-
SOUTHERN NEW ENGLAND
 IN CT

CITY           SKY/WX    TMP DP  RH WIND       PRES   REMARKS
BRADLEY INTL   MOCLDY    65  62  90 S3        30.00S
HARTFORD       CLEAR     65  62  90 S3        30.01S
DANBURY        CLEAR     62  59  90 CALM      30.05R
WTRBRY/OXFORD  CLEAR     64  57  77 CALM      30.06R
BRIDGEPORT     CLEAR     68  62  81 CALM      30.02S
MERIDEN        CLEAR     59  58  96 CALM      30.02S FOG
NEW HAVEN      PTCLDY    64  61  90 CALM      30.03S
CHESTER        FAIR      66  63  88 SW6       30.04S
GROTON         CLEAR     61  61 100 CALM      30.02S
WILLIMANTIC    MOCLDY    59  56  89 CALM      30.03S

 IN RI

CITY           SKY/WX    TMP DP  RH WIND       PRES   REMARKS
PROVIDENCE     PTCLDY    64  59  83 SW3       30.02S
BLOCK ISLAND   CLEAR     66  63  88 W8        30.04R
WESTERLY       CLEAR     59  56  89 CALM      30.03S

 IN MA

CITY           SKY/WX    TMP DP  RH WIND       PRES   REMARKS
BOSTON         PTCLDY    68  59  73 SW7       29.99R
WORCESTER      CLEAR     65  60  84 W14       30.02S
WESTFIELD      CLEAR     62  60  93 CALM      30.01S
PROVINCETOWN   PTCLDY    66  59  77 MISG      30.01S
NANTUCKET      CLEAR     64  63  96 S6        30.04S
$$

ANZ330-335-338-340-345-350-353-355-271100-
COASTAL MARINE OBSERVATIONS


STATION/POSITION TIME  SKY/WX   TEMP    WIND        PRES    VSBY  WAVE
                                AIR SEA DIR/SP/G                  HT/PER
                 (UTC)          (F)     (DEG/KT/KT) (MB)    (MI)  (FT/S)
NY HARB ENTRANCE NOT AVBL
4S FIRE IS       NOT AVBL
23SW MTP         1000                                 N/A           3/ 8
HUDSON CANYON    1000            71 72  300/  4/  4 1017.9          4/ 8
EXECUTION ROCKS  1000            72 74  230/  6/  6   N/A
WESTERN LI SOUND 1000            72     210/  4/  6   N/A           0
CENTRAL LI SOUND 0900            72 73  240/  8/  8   N/A           1/ 2
EASTERN LI SOUND 0900            68 68  310/  2/  2   N/A
ROBBINS REEF     1000            70     260/  5/  6   N/A
$$


>>>>>>>>>>>>>>>>>>>>>>>>>>>> KEY <<<<<<<<<<<<<<<<<<<<<<<<<<<
>                                                          <
>     SKY/WX - SKY CONDITION/PRESENT WEATHER               <
>     TMP    - TEMPERATURE IN FAHRENHEIT                   <
>     DP     - DEWPOINT IN FAHRENHEIT                      <
>     RH     - RELATIVE HUMIDITY IN PERCENT                <
>     WIND   - DIRECTION AND SPEED IN MPH                  <
>     PRES   - MEAN SEA LEVEL PRESSURE IN INCHES OF HG     <
>     WCI    - WIND CHILL INDEX                            <
>     VSB    - VISIBILITY IN MILES                         <
>     HX     - HEAT INDEX                                  <
>     TC     - TEMPERATURE IN CELSIUS                      <
>     VRB    - VARIABLE WIND DIRECTION                     <
>                                                          <
>>>>>>>>>>>>>>>>>>>>>>>>>>>> KEY <<<<<<<<<<<<<<<<<<<<<<<<<<<




USA.gov is the U.S. government's official web portal to all federal, state and local government web resources and services.